Location: Croagnes
(43.9363°N, 5.3265°E)
Time: 21:54:16
(UTC+00:00)

Meteor 1-16 Rocket - Pass Details

Date: 30 September 2020
Orbit: 790 x 908 km, 81.2° (Epoch: 22 October)

Event Time Altitude Azimuth Distance (km) Brightness Sun altitude
Exits shadow 21:22:51 26° 315° (NW) 1,706 6.2 -40.8°
Drops below altitude 10° 21:26:27 10° 350° (N) 2,567 7.2 -41.2°
Sets 21:29:15 0° 2° (N) 3,494 7.9 -41.5°
